Regional Weather Roundup
Issued by NWS

Home | Current Version | Previous Version | Text Only | Print | Product List | Glossary On
Versions: 1 2 3 4 5 6 7 8 9 10 11 12 13 14 15 16 17 18 19 20 21 22 23 24 25 26 27 28 29 30 31 32 33 34 35 36 37 38 39 40 41 42 43 44 45 46 47 48 49 50
952
ASUS45 KBOU 210407
RWRCO

WEATHER ROUNDUP FOR COLORADO
NATIONAL WEATHER SERVICE DENVER/BOULDER CO
1000 PM MDT SUN AUG 20 2017

NOTE: "FAIR" INDICATES FEW OR NO CLOUDS BELOW 12000 FEET WITH NO
SIGNIFICANT WEATHER AND/OR OBSTRUCTIONS TO VISIBILITY.

COZ001>005-013-030-031-210500-
...NORTHWEST COLORADO...

CITY           SKY/WX    TMP DP  RH WIND       PRES   REMARKS
CRAIG          FAIR      61  39  44 SE3       30.18R
HAYDEN         FAIR      62  37  39 E3        30.22R
MEEKER         FAIR      66  39  37 SE6       30.19R
RABBIT EARS PA FAIR      52  34  50 E7        30.52R
STEAMBOAT SPGS FAIR      62  40  44 CALM      30.23R
WALDEN         FAIR      54  37  54 SW7       30.35R
$$

COZ006>008-011-210500-
...WEST CENTRAL VALLEYS...

CITY           SKY/WX    TMP DP  RH WIND       PRES   REMARKS
GRAND JUNCTION FAIR      79  41  25 W9        30.02R
MONTROSE       FAIR      72  40  31 CALM      30.15R
EAGLE          FAIR      74  37  26 SE3       30.22R
RIFLE          FAIR      77  36  22 NW5       30.10R
DELTA          FAIR      77  40  26 NE5       30.08R
NUCLA          FAIR      73  36  25 E5        30.20R
$$

COZ017>023-064>068-210500-
...SOUTHWEST COLORADO...

CITY           SKY/WX    TMP DP  RH WIND       PRES   REMARKS
DURANGO        FAIR      64  44  48 CALM      30.28R
CORTEZ         MOCLDY    70  48  45 SW14      30.21R
PAGOSA SPRINGS FAIR      61  41  47 CALM      30.34R
TELLURIDE      CLOUDY    60  38  44 S6        30.43R
WOLF CREEK PAS MOCLDY    46  30  53 CALM      30.67R
$$

COZ009-010-012-014-032>034-037-058>063-210500-
...CENTRAL COLORADO...

CITY           SKY/WX    TMP DP  RH WIND       PRES   REMARKS
ASPEN          FAIR      61  39  44 S7        30.29R
BUENA VISTA    FAIR      60  40  47 CALM      30.37R
COPPER MTN     FAIR      54  34  47 S13       30.64R
BERTHOUD PASS  MOCLDY    43  37  81 S12       30.68R
COTTONWOOD PAS MOCLDY    61  36  39 E6        30.51R
GUNNISON       MOCLDY    64  41  42 N6        30.31R
KREMMLING      FAIR      68  36  30 CALM      30.29R
LEADVILLE      FAIR      51  35  54 CALM      30.48R
MONARCH PASS   MOCLDY    46  36  66 NE14      30.73S
SALIDA         FAIR      66  43  42 SE8       30.41R
SUNLIGHT       FAIR      55  25  30 N3        30.55R
WILKERSON PASS FAIR      50  34  53 SW6       30.63R
$$

COZ069>075-210500-
...SAN LUIS VALLEY/SANGRE DE CRISTO MOUNTAINS...

CITY           SKY/WX    TMP DP  RH WIND       PRES   REMARKS
ALAMOSA        CLOUDY    60  45  57 SE6       30.32R
DEL NORTE      FAIR      63  43  48 NE7       30.35R
LA VETA PASS   NOT AVBL
SAGUACHE       FAIR      63  41  45 SE6       30.34S
$$

COZ035-036-038>040-210500-
...NORTHERN COLORADO FRONT RANGE...

CITY           SKY/WX    TMP DP  RH WIND       PRES   REMARKS
DENVER INTL AP MOCLDY    75  40  28 SW8       30.14R
DMNS CITY PARK   N/A     70  48  46 E2G9      30.13S
AURORA         MOCLDY    73  42  33 SW5       30.16R
FRONT RANGE AP FAIR      73  41  31 W7        30.15R
ERIE MUNI ARPT FAIR      68  45  42 SW5       30.16R
BOULDER MUN AP FAIR      77  37  24 W8        30.12S
CENTENNIAL     MOCLDY    74  40  29 SW9       30.17R
BROOMFIELD     MOCLDY    73  39  29 W7        30.15R
FORT COLLINS   FAIR      72  51  47 W5        30.11R
LONGMONT       FAIR      69  47  45 W6        30.13R
$$

COZ041-046-047-076>085-087-088-210500-
...PIKES PEAK/PALMER DIVIDE AND SOUTHERN FOOTHILLS...

CITY           SKY/WX    TMP DP  RH WIND       PRES   REMARKS
COLO. SPRINGS  MOCLDY    70  45  40 CALM      30.24R
A. F. ACADEMY  FAIR      64  44  49 CALM      30.24R
SCHRIEVER AFB  MOCLDY    69  42  37 SW18G29   30.21F
CHEYENNE MTN   MOCLDY    67  42  40 SW15G26   30.23S
ELLICOTT       NOT AVBL
FALCON         FAIR      66  41  39 SW8       30.28R
FORT CARSON    FAIR      68  48  49 S15G26    30.20S
LIMON          FAIR      68  56  65 CALM      30.13R
MONUMENT HILL  FAIR      61  41  48 SW8       30.28S
CANON CITY     CLOUDY    73  48  40 SW15G21   30.22R
WALSENBURG     FAIR      73  43  33 N15G22    30.22R
TRINIDAD       FAIR      69  44  40 W8        30.18R
$$

COZ042>045-048>051-090-091-210500-
...NORTHEAST COLORADO...

CITY           SKY/WX    TMP DP  RH WIND       PRES   REMARKS
GREELEY ARPT   FAIR      67  59  75 W5        30.08R
AKRON          FAIR      71  62  73 E8        30.08R
BURLINGTON     FAIR      73  63  70 S10       30.05R
WRAY           NOT AVBL
YUMA           FAIR      68  57  68 NE3       30.04S
STERLING       FAIR      75  64  69 E5        30.02S
HOLYOKE        FAIR      73  68  83 E7        30.03S
FORT MORGAN    FAIR      71  59  66 NE7       30.07R
$$

COZ086-089-092>099-210500-
...SOUTHEAST COLORADO...

CITY           SKY/WX    TMP DP  RH WIND       PRES   REMARKS
PUEBLO         FAIR      79  44  28 NW23G30   30.07R
LA JUNTA       FAIR      75  57  53 W13       30.02R
LAMAR          FAIR      75  59  57 SE13      29.97R
SPRINGFIELD      N/A     73  61  65 S14       30.08R
$$




USA.gov is the U.S. government's official web portal to all federal, state and local government web resources and services.